Wind_Speed
29 30 38 34 32 29 27 26 26 25 23 24 22 21 21 21 21 20 20 20 23 30 28 30 33 24 25 20 21 12 9 9 16 9 4 6 14 12 19 16 13 31 17 14
29 41 32 29 30 31 29 30 30 24 25 20 18 19 20 20 21 20 19 20 20 24 27 31 34 34 23 16 17 20 18 18 22 13 7 9 9 17 19 23 20 18 16 15
39 27 31 31 30 31 32 31 24 17 16 17 15 20 22 23 21 19 17 16 19 22 23 32 36 36 29 28 19 17 23 20 18 25 32 31 13 13 19 22 26 24 29 28
34 32 23 33 34 32 32 27 24 19 18 23 24 21 28 28 21 19 16 12 12 14 20 31 32 34 38 39 38 33 35 27 21 23 24 23 27 31 30 17 22 25 22 23
40 33 33 32 34 30 30 24 25 22 20 20 22 16 22 11 20 18 16 12 13 17 18 26 26 36 36 32 34 23 27 29 34 29 22 31 20 19 25 22 24 23 22 24
33 29 31 29 28 30 23 22 23 22 24 20 26 24 27 11 23 19 20 17 14 16 17 15 21 29 29 26 31 34 31 33 45 32 17 9 13 18 21 22 28 28 32 33
30 34 31 28 27 29 27 26 12 15 16 14 24 27 25 15 10 4 17 17 17 19 15 19 29 27 28 27 25 24 20 16 20 22 26 24 22 25 29 32 33 33 33 35
32 33 37 31 30 34 34 30 20 17 14 16 26 28 25 18 21 9 12 16 21 17 13 23 22 25 29 30 28 27 28 27 25 27 31 33 33 32 35 36 35 32 32 34
36 35 34 30 33 31 31 36 31 25 17 6 10 12 20 12 18 13 14 19 18 18 20 23 27 27 26 27 29 29 29 29 30 32 33 35 31 30 31 31 32 33 33 33
31 23 26 32 26 30 36 32 30 30 16 11 16 20 12 20 19 16 17 18 20 22 19 19 20 22 23 20 21 23 22 22 20 20 22 26 27 28 30 31 30 32 35 37
36 18 23 25 37 32 30 29 27 24 26 6 6 8 2 13 6 8 19 20 22 24 24 19 20 22 22 23 21 16 13 14 17 19 21 23 24 27 29 32 33 36 39 42
39 17 17 25 28 36 34 34 32 16 18 26 9 5 14 10 19 12 15 24 24 26 24 22 22 17 16 14 14 13 13 14 17 19 21 23 26 28 31 34 36 40 43 47
28 14 20 13 17 24 39 34 33 27 14 14 6 6 16 3 3 24 29 18 23 21 21 17 10 11 12 14 16 18 18 20 21 23 25 27 30 33 36 38 43 46 49 50
26 23 21 11 20 27 35 34 25 30 16 15 10 12 15 12 5 5 8 17 24 21 21 16 14 16 21 19 15 16 19 22 24 25 27 29 34 37 41 43 47 48 49 52
26 27 24 19 21 23 26 33 26 20 7 10 15 12 10 16 20 13 10 15 19 19 13 16 18 19 15 12 13 17 21 25 27 30 34 38 43 44 44 47 49 51 52 52
37 25 37 24 18 36 30 21 24 21 41 18 16 29 5 11 9 24 14 11 12 12 15 17 19 19 19 19 22 27 32 34 39 43 44 42 41 41 44 47 51 52 53 54
29 33 32 12 13 4 7 19 18 17 23 11 12 11 20 8 9 15 19 17 19 18 19 15 19 22 19 22 29 34 35 37 39 39 39 41 42 43 45 47 50 52 51 49
22 22 15 10 18 2 6 13 13 15 11 7 4 11 7 2 11 16 17 22 19 23 20 23 27 25 24 25 27 28 29 33 36 37 38 39 40 42 45 48 48 48 47 46
15 19 11 6 6 15 14 13 13 14 10 8 6 8 10 18 22 20 18 20 23 25 26 29 27 28 26 27 28 31 33 34 34 34 36 39 42 45 47 45 45 43 41 36
9 17 13 14 10 6 16 12 10 13 10 5 7 7 15 13 10 15 17 19 19 19 20 26 27 25 26 29 30 32 33 33 35 36 39 42 44 44 42 39 38 33 29 30
16 16 17 14 6 11 11 8 13 12 8 10 13 15 19 17 17 18 16 15 17 18 19 21 23 24 26 27 28 31 33 35 37 39 40 40 40 37 36 35 35 27 29 26
21 13 15 11 10 5 7 10 5 15 18 14 18 18 14 14 9 10 13 13 15 17 18 20 23 25 28 30 31 33 34 35 36 37 37 36 33 33 34 33 22 22 23 23
13 7 7 7 11 15 9 13 15 17 19 17 12 12 11 10 12 16 17 14 13 14 17 19 22 25 26 28 30 31 32 32 32 29 28 25 24 25 23 15 17 18 25 24
14 11 17 14 13 15 16 14 19 16 13 12 11 13 9 9 7 7 8 10 12 13 14 16 18 21 24 26 28 27 25 22 20 17 18 18 17 16 15 16 19 22 22 22
10 15 11 21 18 20 15 19 15 16 13 10 13 9 7 4 5 6 7 8 9 10 12 14 16 19 22 22 21 20 19 15 14 16 18 16 17 16 14 17 19 22 23 24
11 13 17 18 19 17 23 15 12 15 14 13 8 5 2 3 5 4 4 5 8 10 12 14 16 18 19 20 23 17 14 15 15 17 15 15 13 14 16 18 18 23 26 24
Wind_Direction
211 213 215 216 218 223 230 232 229 241 230 211 218 239 242 242 243 244 245 242 239 234 240 214 218 238 242 242 236 228 253 230 239 263 251 197 228 260 275 297 296 260 293 313
209 222 218 220 223 224 230 240 241 234 213 216 223 238 249 246 241 242 241 238 241 236 231 213 220 218 223 218 219 222 221 224 233 248 252 275 261 274 275 288 296 299 306 299
210 221 219 218 221 222 228 233 238 248 199 219 235 253 250 242 239 235 237 236 236 230 227 210 217 216 215 227 229 226 232 223 222 234 248 245 265 276 285 286 285 276 261 269
219 215 216 217 221 218 225 223 230 225 231 234 217 243 247 235 224 217 223 230 212 207 215 204 213 225 228 242 252 254 252 244 249 248 244 250 253 266 273 283 291 273 271 273
221 216 216 216 218 217 226 218 221 227 237 242 250 263 272 177 210 203 210 211 202 202 192 201 213 223 232 251 255 241 234 248 246 251 253 258 242 255 265 273 270 273 271 268
225 219 216 220 215 214 213 220 214 219 226 231 235 247 258 252 203 209 198 197 199 193 197 204 218 209 225 224 235 244 250 249 247 255 248 238 245 233 244 265 275 273 271 273
217 222 217 218 213 206 209 212 203 216 226 235 230 236 246 199 193 243 182 184 187 185 194 208 198 205 219 233 247 248 249 245 229 244 255 256 251 247 252 262 267 271 274 274
219 212 209 207 207 199 204 204 218 204 213 224 225 229 244 220 201 195 176 179 183 185 187 184 180 207 230 246 246 243 245 250 249 244 251 249 262 254 257 260 264 266 266 269
215 222 209 211 209 207 202 211 218 251 273 297 261 220 172 166 157 170 174 173 179 191 187 200 210 218 231 244 242 242 244 244 243 247 246 245 250 255 256 258 261 265 268 271
216 220 219 212 210 213 214 210 215 233 237 222 236 223 166 196 180 184 178 172 169 168 183 206 212 215 229 236 239 244 246 245 248 248 246 249 253 254 257 262 266 269 272 275
211 223 223 224 216 209 215 228 217 224 234 182 237 259 215 241 212 278 188 177 168 167 173 173 197 222 233 240 246 244 238 232 235 238 242 248 253 259 262 266 270 272 275 279
204 214 215 225 216 215 216 216 210 226 248 230 195 224 186 179 218 242 175 183 171 174 169 174 207 226 228 229 226 232 238 240 242 248 252 257 260 266 270 274 278 282 285 287
193 212 203 244 230 221 214 213 210 213 246 233 192 137 150 163 269 211 222 193 158 172 162 167 177 160 161 199 215 226 233 247 256 261 266 271 274 277 280 283 286 288 289 289
200 206 211 229 211 204 208 211 214 212 194 207 209 181 162 172 129 121 164 166 181 150 156 155 156 175 205 221 238 253 255 256 259 261 263 269 273 276 278 282 287 287 288 292
211 210 207 217 236 212 214 202 204 205 186 208 217 221 232 227 227 214 224 190 177 226 152 161 183 204 216 229 247 259 265 268 274 281 283 284 284 282 284 288 289 289 291 292
206 210 214 172 193 198 222 191 197 224 230 243 224 216 184 237 242 203 175 149 145 160 179 187 205 220 240 257 268 269 271 285 283 282 285 288 286 288 289 290 291 292 294 296
192 207 216 198 182 118 200 189 180 187 179 218 195 175 181 182 145 175 177 166 170 173 175 182 231 244 251 272 276 276 279 279 283 284 287 285 287 290 292 293 294 295 296 296
182 186 172 150 134 132 197 217 204 203 214 169 160 147 136 108 109 150 170 171 177 192 210 232 248 266 281 278 279 281 281 282 284 286 286 289 292 293 293 294 296 295 295 297
142 156 122 124 164 130 139 141 143 167 173 190 164 153 162 149 161 140 156 175 196 217 234 265 272 283 279 283 285 284 285 288 289 291 293 293 294 295 298 298 297 296 296 297
136 145 124 162 167 127 138 141 134 154 117 145 141 159 171 170 162 166 197 213 227 246 269 272 274 282 290 291 291 289 287 291 293 294 295 296 296 298 298 298 301 299 295 296
137 126 122 169 152 100 120 127 136 169 139 163 169 157 166 164 193 209 230 240 260 264 267 276 286 291 294 295 296 295 294 294 294 295 296 295 295 296 298 298 299 294 294 300
138 155 184 147 101 96 114 113 149 153 141 149 185 199 200 193 208 232 257 264 271 278 290 294 295 296 299 298 299 299 298 297 296 295 295 295 297 298 296 296 293 294 297 297
120 133 113 141 119 125 147 165 148 159 158 140 172 202 193 198 224 240 249 266 284 292 295 297 302 306 307 305 304 302 299 296 294 293 296 302 300 304 313 311 297 291 300 301
110 136 120 104 120 140 150 151 158 166 174 177 186 152 176 182 201 244 273 284 293 297 300 305 309 313 317 317 313 309 307 303 302 301 310 305 313 318 317 314 308 305 305 307
113 151 131 132 145 149 155 158 167 163 176 171 141 166 179 199 263 282 285 289 294 301 307 313 320 326 331 334 329 320 325 322 306 312 315 319 327 322 321 317 309 304 308 309
142 141 151 149 158 168 155 159 175 181 155 149 157 154 179 265 280 286 293 298 305 313 319 325 332 338 341 346 345 333 320 324 315 316 329 337 322 315 311 311 313 312 308 308
Height
3053 3055 3050 3059 3064 3067 3068 3068 3068 3069 3068 3071 3076 3079 3080 3081 3082 3083 3084 3084 3086 3087 3089 3094 3101 3098 3098 3101 3104 3104 3102 3105 3106 3110 3115 3121 3128 3129 3125 3127 3124 3108 3085 3114
3048 3040 3050 3056 3060 3063 3064 3063 3061 3063 3065 3069 3071 3074 3076 3076 3077 3078 3079 3080 3081 3082 3084 3088 3093 3097 3096 3099 3100 3103 3107 3109 3111 3112 3114 3118 3119 3121 3125 3124 3131 3128 3124 3127
3034 3038 3046 3050 3054 3057 3059 3059 3059 3059 3061 3065 3068 3070 3070 3070 3071 3073 3074 3075 3076 3077 3079 3083 3088 3093 3098 3095 3098 3102 3107 3108 3109 3112 3111 3113 3115 3118 3122 3124 3124 3129 3129 3132
3031 3036 3039 3043 3046 3051 3052 3056 3058 3058 3061 3061 3064 3062 3059 3059 3063 3066 3069 3070 3071 3073 3076 3080 3086 3088 3093 3095 3099 3099 3104 3104 3109 3110 3110 3112 3118 3119 3115 3118 3116 3121 3122 3125
3020 3027 3032 3035 3039 3045 3048 3052 3056 3057 3058 3060 3059 3060 3051 3053 3057 3060 3064 3067 3069 3071 3074 3078 3082 3083 3089 3093 3095 3097 3100 3103 3104 3106 3105 3108 3111 3110 3115 3113 3115 3119 3120 3119
3019 3024 3027 3029 3035 3040 3046 3049 3052 3055 3057 3055 3057 3057 3051 3050 3052 3055 3057 3063 3067 3070 3074 3077 3077 3081 3085 3088 3090 3093 3095 3094 3097 3101 3103 3104 3101 3104 3108 3111 3112 3114 3116 3112
3014 3015 3021 3025 3030 3035 3041 3045 3046 3049 3048 3046 3051 3053 3048 3047 3054 3053 3055 3059 3065 3067 3069 3073 3073 3078 3082 3084 3084 3087 3089 3091 3093 3096 3099 3102 3103 3103 3104 3108 3107 3109 3107 3105
3006 3010 3011 3017 3022 3027 3033 3038 3037 3038 3040 3041 3044 3041 3042 3045 3049 3054 3055 3057 3062 3063 3067 3072 3072 3074 3078 3080 3081 3083 3086 3087 3089 3092 3093 3096 3098 3098 3099 3102 3103 3103 3102 3100
3000 3002 3009 3014 3019 3024 3029 3030 3037 3035 3036 3045 3036 3040 3041 3047 3046 3051 3054 3055 3057 3061 3064 3066 3071 3072 3071 3075 3077 3080 3082 3083 3083 3085 3089 3093 3094 3096 3095 3097 3097 3096 3096 3096
2997 3002 3004 3011 3016 3018 3021 3030 3034 3032 3035 3039 3034 3034 3045 3045 3046 3051 3052 3053 3054 3058 3060 3061 3065 3067 3069 3071 3073 3075 3076 3078 3081 3083 3085 3088 3090 3090 3091 3091 3093 3092 3090 3090
2993 2999 3005 3007 3008 3013 3018 3021 3026 3029 3029 3032 3037 3038 3038 3044 3041 3046 3049 3050 3052 3055 3055 3058 3060 3063 3065 3068 3070 3072 3075 3077 3078 3080 3082 3084 3086 3087 3088 3088 3087 3085 3084 3082
2987 2996 3000 3001 3004 3010 3013 3016 3023 3026 3026 3027 3031 3037 3038 3042 3050 3047 3043 3046 3049 3052 3054 3056 3057 3061 3063 3065 3068 3070 3072 3074 3075 3077 3078 3080 3081 3082 3082 3081 3080 3077 3075 3072
2985 2988 2997 3000 3002 3001 3005 3010 3016 3022 3024 3022 3028 3038 3039 3044 3043 3044 3046 3046 3038 3053 3053 3057 3057 3059 3062 3063 3065 3066 3069 3071 3072 3074 3075 3075 3075 3074 3073 3072 3070 3067 3063 3060
2978 2983 2986 2988 2992 2999 3000 3004 3010 3015 3018 3024 3029 3035 3040 3042 3044 3048 3039 3035 3046 3049 3052 3058 3062 3060 3058 3060 3063 3066 3068 3069 3069 3070 3070 3070 3069 3068 3066 3063 3060 3056 3053 3049
2972 2979 2984 2988 2991 2993 2996 3002 3007 3010 3016 3023 3027 3027 3037 3038 3040 3045 3046 3046 3046 3049 3056 3059 3059 3056 3056 3059 3061 3063 3063 3063 3063 3064 3062 3061 3059 3056 3054 3051 3047 3044 3041 3039
2969 2975 2981 2986 2988 2993 2993 2998 3004 3009 3014 3025 3023 3022 3027 3032 3031 3037 3040 3045 3046 3049 3054 3056 3054 3052 3053 3055 3056 3057 3057 3057 3057 3055 3053 3051 3049 3046 3043 3040 3036 3033 3030 3025
2968 2973 2979 2984 2987 2987 2994 2998 3003 3007 3011 3017 3018 3020 3026 3028 3029 3034 3041 3044 3046 3049 3049 3047 3047 3047 3050 3051 3051 3052 3051 3050 3048 3046 3043 3041 3039 3036 3032 3029 3026 3022 3017 3013
2965 2971 2977 2978 2989 2995 2995 2998 3002 3007 3011 3015 3020 3026 3028 3027 3033 3035 3039 3040 3041 3043 3044 3042 3042 3046 3047 3045 3045 3045 3043 3041 3039 3037 3035 3032 3029 3027 3023 3019 3015 3010 3005 3002
2962 2967 2975 2982 2987 2992 2997 3000 3002 3005 3014 3019 3021 3024 3028 3028 3031 3033 3034 3035 3037 3039 3040 3041 3042 3041 3041 3040 3039 3037 3035 3033 3030 3028 3026 3023 3020 3016 3012 3007 3002 2998 2995 2992
2966 2970 2978 2985 2987 2988 2996 2999 3001 3006 3013 3016 3020 3022 3024 3027 3028 3031 3032 3034 3036 3036 3040 3038 3037 3037 3036 3034 3032 3029 3027 3025 3022 3020 3016 3012 3008 3004 3001 2997 2993 2989 2986 2984
2967 2973 2977 2985 2988 2993 2996 2998 3000 3007 3018 3014 3017 3019 3021 3024 3026 3029 3031 3034 3035 3035 3036 3034 3032 3032 3030 3028 3026 3023 3020 3017 3014 3010 3006 3002 2998 2995 2991 2989 2985 2983 2980 2978
2971 2979 2982 2983 2988 2997 2999 3000 3004 3007 3011 3013 3016 3019 3022 3026 3027 3029 3031 3032 3033 3033 3031 3029 3027 3027 3025 3022 3019 3015 3011 3008 3004 3001 2997 2993 2990 2987 2983 2980 2978 2976 2974 2971
2978 2982 2979 2985 2991 2996 2997 2999 3003 3007 3010 3014 3016 3020 3022 3024 3027 3028 3030 3030 3029 3029 3028 3026 3024 3021 3019 3016 3012 3008 3003 3000 2996 2993 2989 2987 2984 2980 2976 2974 2973 2971 2969 2966
2977 2980 2984 2988 2995 2996 2998 3001 3004 3009 3012 3016 3018 3020 3022 3024 3025 3026 3027 3027 3027 3027 3025 3024 3022 3019 3015 3011 3006 3000 2996 2992 2989 2987 2985 2982 2979 2976 2973 2971 2968 2966 2963 2961
2980 2983 2986 2990 2993 2996 3001 3004 3008 3012 3015 3016 3019 3020 3022 3023 3024 3025 3026 3026 3025 3025 3023 3021 3019 3016 3011 3007 3001 2997 2992 2989 2987 2985 2982 2978 2975 2972 2970 2968 2965 2962 2958 2954
2983 2987 2989 2992 2995 2997 3002 3007 3011 3013 3014 3017 3018 3019 3021 3022 3023 3024 3024 3024 3024 3022 3020 3018 3016 3012 3009 3004 2999 2994 2990 2987 2983 2981 2978 2974 2972 2970 2968 2966 2962 2956 2950 2949